Showing default

HULIANWANG DIGUI-137, 67435

Orbit data source: Space-Track

HULIANWANG DIGUI-137, 67435 is a payload satellite owned by Zhongguo Xingwang (CN) in LEO that was launched on Tue, 13 Jan 2026 UTC via a CHANG ZHENG 8A launch vehicle from the Wenchang Satellite Launch Center (WSC). Payload-class satellites include a variety of spacecraft equipped with specific instruments for various scientific and technological missions. These include communications satellites like Starlink; space stations such as the ISS; scientific satellites like the Hubble; Earth observation satellites from companies like Planet Labs, Umbra, and HawkEye 360; GPS; miniature CubeSats for education and research; and military/defense satellites.

Loading next visibility...
Identifier
67435, 2026-007A
Orbit
LEO
Country
Flag of CNCN / PRC
Related business
Manufacturer
CAST
Mission
Operational Civil Communications
Bus & Motor
XINGWANG C, Unknown motor
Mass
~700 kg wet, ~700 kg dry
Launch date (UTC)
2026-01-13 (5 months ago)
Launch vehicle
CHANG ZHENG 8A
Launch site
Wenchang Satellite Launch Center (WSC)
Object type
Payload
Rocket body
Debris
Shape & HBR
Box + 2 Pan, 14.5 m
Radar Cross Section
5.935 m², Large (>1 m²)

Expand to show TLE details & history
Last TLE update: 16 hours ago

TLE from 16 hours ago
0 HULIANWANG DIGUI-137
1 67435U 26007A   26171.16305079 -.00000084  00000-0  86964-4 0  9998
2 67435  50.0086  75.1771 0000933  20.3644 339.7265 13.29325796 21182
Epoch: 2026-06-20T03:54Z
TLE epoch observation values (Epoch: 2026-06-20T03:54:47.588Z)
Latitude
-0.00003°
Longitude
108.09717°
Altitude
1,149.155 km
Speed
7.28 km/s
True Right ascension
05h 00m 42s
True Declination
0° 00' 00"
Sunlit
Object was in daylight at epoch
Visualization orbit readout
Latitude
Unknown
Longitude
Unknown
Altitude
Unknown
Speed
Unknown
Apparent Right ascension
Unknown
Apparent Declination
Unknown
Sunlit
N/A
Visualization observer readout
Local Sidereal Time
07:19:38
Azimuth
Unknown
Elevation
Unknown
Doppler factor
Unknown
Orbital elements
Apogee altitude
1,150.714 km
Perigee altitude
1,149.309 km
Semi-major axis
7,528.148 km
Eccentricity
0.00009
Inclination
50.0086°
RAAN
75.1771°
Arg. of periapsis
20.3644°
True anomaly
339.7228°
Mean anomaly
339.7265°
Eccentric anomaly
339.72465°
Mean motion
3.32285 °/min
Orbital period
108.34 mins
BSTAR
0.000086964
Loading maneuver chart data...
Computing Atmospheric mass density...
Loading historical data...
Loading historical data...
Loading historical data...
Loading historical data...
Loading historical data...
Loading historical data...
Loading historical data...

Documentation

Showing up to 5 results
|